Dresden, OH (43821)

5:29 AM EDT on July 29, 2016 (GMT -0400)
FranklinTownship TR 479 | | Change Station

Elev 866 ft 40.21 °N, 81.89 °W | Updated 25 seconds ago

Overcast
Overcast
72.7 °F
Feels Like 72.7 °F
N
0.0
Wind Variable Wind from WNW
Gusts 0.0 mph

Today
High -- | Low -- °F
--% Chance of Precip.
Yesterday
High -- | Low -- °F
Precip. -- in
Pressure 29.93 in
Visibility 4.0 miles
Clouds Overcast 200 ft
Dew Point 72 °F
Humidity 97%
Rainfall 0.00 in
Snow Depth Not available.
6:23 AM 8:44 PM
Waning Crescent, 23% visible
SPECI KZZV 290920Z AUTO 00000KT 4SM BR OVC002 23/21 A2993 RMK AO2 T02330211 $
Pressure 29.93 in
Visibility 4.0 miles
Clouds Overcast 200 ft
Dew Point 72 °F
Humidity 97%
Rainfall 0.00 in
Snow Depth Not available.
6:23 AM 8:44 PM
Waning Crescent, 23% visible
SPECI KZZV 290920Z AUTO 00000KT 4SM BR OVC002 23/21 A2993 RMK AO2 T02330211 $

10-Day Weather Forecast

Almanac

Astronomy

Jul. 29, 2016 Rise Set
Actual Time
Civil Twilight
Nautical Twilight
Astronomical Twilight
Moon
Length of Visible Light
Length of Day
Tomorrow will be .
, % of the Moon is Illuminated

Today's Extremes

State Highs State Lows

Community

WunderPhotos

Upload Photos

1,928,300 photos uploaded!

WunderBlog® & News

Nearby

Air Quality

  Air Quality AQ Index Pollutant
Not available.

Snow Depth

Station Depth Elevation

Earthquake Activity

City Distance Mag. Time & Date
Minimum magnitude displayed is 2.5.

Coastal Water Temperatures

Place Temperature

Stations

Nearby Weather Stations

Station Location Temp. Windchill Dew Point Humidity Wind Precip. Elev Updated Type
                   

Watches & Warnings

There are currently no watches in effect.